User: anonymous   Login
Location: Caltech
(34.1382°N, 118.1253°W)
Time: 20:47:24
(UTC-07:00)
Language:

OAO 1 Rocket - Orbit

View from above orbital plane
View from above orbital plane
View from above satellite
View from above satellite

Ground track
Ground track

The orbit data is extracted from the following two-line orbital elements,

1 02144U 66031B   14295.73755594  .00000589  00000-0  18220-3 0  7517
2 02144 035.0410 163.2617 0007778 012.5836 347.5047 14.42196944548197
Epoch (UTC): 22 October 2014 17:42:04
Eccentricity: 0.0007778
inclination: 35.0410°
perigee height: 746 km
apogee height: 757 km
right ascension of ascending node: 163.2617°
argument of perigee: 12.5836°
revolutions per day: 14.42196944
mean anomaly at epoch: 347.5047°
orbit number at epoch: 54819

The dashed part of the orbit path shows where the satellite is in the earth's shadow,  

DLR